FW3611 Weather Reports


Display with metric or nautical units.
time (UTC)temp
F
wind
direction
speed
MPH
gust
MPH
rain 1hr
in
rain 24hr
in
rain mn
in
humidity
%
barometer
mb
20260903234812 85 110 1.0 4.0 0.00 0.00 0.00 79 1015.6
20260903234311 85 110 1.0 4.0 0.00 0.00 0.00 79 1015.6
20260903233818 85 71 2.0 8.0 0.00 0.00 0.00 79 1015.6
20260903233314 85 70 2.0 8.0 0.00 0.00 0.00 78 1015.5
20260903232313 85 79 3.0 9.0 0.00 0.00 0.00 77 1015.4
20260903231812 85 65 2.0 6.0 0.00 0.00 0.00 77 1015.3
20260903231307 85 51 2.0 6.0 0.00 0.00 0.00 77 1015.2
20260903230805 86 133 2.0 6.0 0.00 0.00 0.00 77 1015.2
20260903230305 86 112 3.0 6.0 0.00 0.00 0.00 76 1015.1
20260903225804 86 91 3.0 11.0 0.00 0.00 0.00 75 1015.1
20260903225306 86 70 3.0 11.0 0.00 0.00 0.00 75 1015.0
20260903224803 86 62 3.0 11.0 0.00 0.00 0.00 75 1015.0
20260903224307 86 98 1.0 9.0 0.00 0.00 0.00 75 1014.9
20260903223803 86 104 1.0 4.0 0.00 0.00 0.00 75 1015.0
20260903223254 87 104 1.0 4.0 0.00 0.00 0.00 75 1015.0
20260903222233 87 67 2.0 3.0 0.00 0.00 0.00 74 1014.9
20260903221734 87 67 2.0 8.0 0.00 0.00 0.00 73 1014.8
20260903220240 88 84 4.0 11.0 0.00 0.00 0.00 71 1015.1
20260903215736 89 123 3.0 10.0 0.00 0.00 0.00 69 1015.0
20260903215233 90 108 3.0 10.0 0.00 0.00 0.00 69 1015.0
20260903214734 91 112 3.0 7.0 0.00 0.00 0.00 68 1014.9
20260903214231 91 136 2.0 7.0 0.00 0.00 0.00 68 1014.7
20260903213730 91 73 2.0 7.0 0.00 0.00 0.00 67 1014.8
20260903213233 90 118 3.0 11.0 0.00 0.00 0.00 67 1014.9
20260903212229 92 73 3.0 11.0 0.00 0.00 0.00 64 1014.9
20260903211231 91 58 3.0 8.0 0.00 0.00 0.00 69 1014.8
20260903210730 90 55 3.0 6.0 0.00 0.00 0.00 70 1014.9
20260903210235 89 49 3.0 6.0 0.00 0.00 0.00 70 1014.8
20260903205738 89 58 5.0 10.0 0.00 0.00 0.00 69 1014.8
20260903205252 89 32 6.0 12.0 0.00 0.00 0.00 68 1014.9
20260903204748 90 46 7.0 14.0 0.00 0.00 0.00 66 1014.9
20260903204248 92 60 6.0 14.0 0.00 0.00 0.00 65 1014.9
20260903203810 92 56 3.0 10.0 0.00 0.00 0.00 64 1015.0
20260903202756 92 102 3.0 10.0 0.00 0.00 0.00 64 1015.1
20260903202301 92 80 4.0 11.0 0.00 0.00 0.00 64 1015.2
20260903201745 91 119 4.0 11.0 0.00 0.00 0.00 64 1015.2
20260903201248 91 77 3.0 10.0 0.00 0.00 0.00 64 1015.2
20260903200725 91 42 4.0 9.0 0.00 0.00 0.00 67 1015.1
20260903200249 91 15 5.0 12.0 0.00 0.00 0.00 66 1015.2
20260903195210 93 53 4.0 10.0 0.00 0.00 0.00 64 1015.3
20260903194707 93 142 2.0 9.0 0.00 0.00 0.00 65 1015.3
20260903194205 93 135 3.0 10.0 0.00 0.00 0.00 67 1015.4
20260903193203 93 104 3.0 10.0 0.00 0.00 0.00 65 1015.5
20260903192205 92 65 3.0 10.0 0.00 0.00 0.00 65 1015.4
20260903191206 91 70 3.0 8.0 0.00 0.00 0.00 66 1015.7
20260903190707 91 138 3.0 8.0 0.00 0.00 0.00 66 1015.8
20260903190204 91 90 3.0 7.0 0.00 0.00 0.00 66 1015.8
20260903185705 92 115 3.0 8.0 0.00 0.00 0.00 67 1015.8
20260903185203 91 110 3.0 9.0 0.00 0.00 0.00 66 1015.9
20260903184201 91 71 3.0 8.0 0.00 0.00 0.00 66 1016.0
20260903183701 91 60 3.0 10.0 0.00 0.00 0.00 65 1015.9
20260903183203 92 82 4.0 10.0 0.00 0.00 0.00 63 1016.1
20260903182702 91 103 4.0 11.0 0.00 0.00 0.00 67 1016.1
20260903182202 91 48 4.0 11.0 0.00 0.00 0.00 65 1016.1
20260903181702 91 67 6.0 13.0 0.00 0.00 0.00 67 1016.2
20260903181201 90 56 6.0 13.0 0.00 0.00 0.00 67 1016.4
20260903180702 90 75 5.0 10.0 0.00 0.00 0.00 67 1016.5
20260903180200 90 40 5.0 11.0 0.00 0.00 0.00 66 1016.5
20260903175700 90 58 5.0 11.0 0.00 0.00 0.00 66 1016.4
20260903174658 90 64 6.0 12.0 0.00 0.00 0.00 69 1016.8
20260903174159 90 62 5.0 10.0 0.00 0.00 0.00 66 1016.7
20260903173700 90 66 5.0 9.0 0.00 0.00 0.00 65 1016.8
20260903173201 90 58 5.0 9.0 0.00 0.00 0.00 66 1016.9
20260903172659 90 64 5.0 10.0 0.00 0.00 0.00 67 1016.9
20260903172158 91 50 4.0 10.0 0.00 0.00 0.00 66 1017.0
20260903171659 90 58 4.0 9.0 0.00 0.00 0.00 67 1017.2
20260903170659 90 35 5.0 10.0 0.00 0.00 0.00 65 1017.3
20260903165200 90 52 4.0 11.0 0.00 0.00 0.00 68 1017.3
20260903164704 89 339 4.0 11.0 0.00 0.00 0.00 71 1017.5
20260903164203 89 39 4.0 9.0 0.00 0.00 0.00 70 1017.6
20260903163659 89 38 4.0 10.0 0.00 0.00 0.00 69 1017.8
20260903163201 89 35 5.0 10.0 0.00 0.00 0.00 69 1017.6
20260903162201 88 64 5.0 10.0 0.00 0.00 0.00 69 1017.6
20260903161658 89 77 5.0 9.0 0.00 0.00 0.00 72 1017.7
20260903161201 88 67 4.0 9.0 0.00 0.00 0.00 70 1017.8
20260903160659 88 70 3.0 8.0 0.00 0.00 0.00 72 1017.9
20260903160158 87 71 3.0 7.0 0.00 0.00 0.00 75 1017.8
20260903155657 86 71 3.0 7.0 0.00 0.00 0.00 76 1017.9
20260903155157 87 73 4.0 9.0 0.00 0.00 0.00 76 1018.1
20260903153657 86 57 3.0 7.0 0.00 0.00 0.00 78 1018.0
20260903153158 86 55 3.0 7.0 0.00 0.00 0.00 77 1018.1
20260903152658 87 52 3.0 10.0 0.00 0.00 0.00 76 1018.2
20260903152156 87 74 4.0 10.0 0.00 0.00 0.00 77 1018.3
20260903151656 86 54 2.0 9.0 0.00 0.00 0.00 77 1018.2
20260903150656 85 1 4.0 8.0 0.00 0.00 0.00 81 1018.2
20260903150156 85 96 4.0 9.0 0.00 0.00 0.00 80 1018.3
20260903145155 85 72 2.0 7.0 0.00 0.00 0.00 84 1018.1
20260903144654 83 73 2.0 7.0 0.00 0.00 0.00 86 1018.0
20260903144155 83 54 3.0 7.0 0.00 0.00 0.00 87 1018.0
20260903143154 82 27 3.0 7.0 0.00 0.00 0.00 90 1018.1
20260903142653 81 32 3.0 7.0 0.00 0.00 0.00 93 1017.9
20260903142153 80 342 4.0 8.0 0.00 0.00 0.00 94 1018.0
20260903141652 80 35 4.0 8.0 0.00 0.00 0.00 94 1017.9
20260903141150 80 65 4.0 8.0 0.00 0.00 0.00 95 1018.1
20260903140651 79 67 4.0 8.0 0.00 0.00 0.00 96 1018.0
20260903135651 79 31 4.0 8.0 0.00 0.00 0.00 96 1017.9
20260903135150 78 49 4.0 8.0 0.00 0.00 0.00 96 1017.9
20260903134652 79 54 3.0 8.0 0.00 0.00 0.00 96 1018.1
20260903134151 79 71 3.0 8.0 0.00 0.00 0.00 96 1018.0
20260903133652 79 71 3.0 8.0 0.00 0.00 0.00 96 1018.0
20260903133150 79 63 3.0 5.0 0.00 0.00 0.00 96 1018.1
20260903132645 78 63 3.0 6.0 0.00 0.00 0.00 96 1018.1
20260903132145 78 55 3.0 6.0 0.00 0.00 0.00 96 1018.2
20260903131644 78 62 3.0 6.0 0.00 0.00 0.00 96 1018.1
20260903131143 78 47 3.0 6.0 0.00 0.00 0.00 96 1018.0
20260903130640 78 41 3.0 7.0 0.00 0.00 0.00 96 1018.0
20260903130141 78 40 3.0 7.0 0.00 0.00 0.00 96 1018.2
20260903125641 77 35 4.0 9.0 0.00 0.00 0.00 96 1018.2
20260903124140 77 56 3.0 5.0 0.00 0.00 0.00 96 1018.0
20260903123640 77 53 3.0 5.0 0.00 0.00 0.00 96 1018.1
20260903123141 77 58 2.0 5.0 0.00 0.00 0.00 96 1018.1
20260903122635 77 59 2.0 5.0 0.00 0.00 0.00 96 1018.0
20260903122126 77 60 2.0 5.0 0.00 0.00 0.00 96 1018.0
20260903121625 76 29 2.0 5.0 0.00 0.00 0.00 96 1018.0
20260903121119 76 29 2.0 5.0 0.00 0.00 0.00 96 1017.9
20260903115614 76 15 2.0 5.0 0.00 0.00 0.00 96 1017.9
20260903115115 76 47 2.0 4.0 0.00 0.00 0.00 96 1017.8
20260903114615 76 47 2.0 4.0 0.00 0.00 0.00 96 1017.7
20260903114114 76 47 2.0 3.0 0.00 0.00 0.00 96 1017.6
20260903113613 75 47 2.0 3.0 0.00 0.00 0.00 96 1017.6
20260903113112 75 47 2.0 3.0 0.00 0.00 0.00 96 1017.4
20260903112608 75 47 1.0 3.0 0.00 0.00 0.00 96 1017.4
20260903112108 75 47 1.0 3.0 0.00 0.00 0.00 96 1017.3
20260903111607 75 47 2.0 4.0 0.00 0.00 0.00 96 1017.3
20260903111106 75 47 2.0 4.0 0.00 0.00 0.00 95 1017.1
20260903110604 75 47 2.0 5.0 0.00 0.00 0.00 95 1017.0
20260903105604 75 71 2.0 3.0 0.00 0.00 0.00 95 1016.8
20260903105106 75 71 2.0 3.0 0.00 0.00 0.00 95 1016.8
20260903104608 75 71 2.0 3.0 0.00 0.00 0.00 95 1016.8
20260903103605 75 141 2.0 3.0 0.00 0.00 0.00 95 1016.6
20260903103109 75 141 1.0 3.0 0.00 0.00 0.00 95 1016.6
20260903102602 75 141 0.0 3.0 0.00 0.00 0.00 95 1016.6
20260903102100 75 141 0.0 0.0 0.00 0.00 0.00 95 1016.6
20260903101554 75 141 0.0 3.0 0.00 0.00 0.00 95 1016.7
20260903101053 75 141 0.0 3.0 0.00 0.00 0.00 95 1016.7
20260903100550 75 141 1.0 3.0 0.00 0.00 0.00 95 1016.6
20260903100051 75 141 1.0 3.0 0.00 0.00 0.00 95 1016.6
20260903095550 74 141 1.0 3.0 0.00 0.00 0.00 95 1016.6
20260903094049 74 141 0.0 2.0 0.00 0.00 0.00 94 1016.4
20260903093037 74 141 0.0 0.0 0.00 0.00 0.00 94 1016.4
20260903092031 73 141 0.0 0.0 0.00 0.00 0.00 94 1016.4
20260903091532 73 141 0.0 0.0 0.00 0.00 0.00 94 1016.5
20260903091033 73 141 0.0 0.0 0.00 0.00 0.00 94 1016.4
20260903090030 74 141 0.0 0.0 0.00 0.00 0.00 93 1016.5
20260903084032 74 141 0.0 0.0 0.00 0.00 0.00 94 1016.4
20260903083531 74 141 0.0 0.0 0.00 0.00 0.00 93 1016.4
20260903083032 74 141 0.0 0.0 0.00 0.00 0.00 93 1016.4
20260903082529 74 141 0.0 0.0 0.00 0.00 0.00 94 1016.4
20260903082029 74 141 0.0 0.0 0.00 0.00 0.00 93 1016.4
20260903081524 74 141 0.0 0.0 0.00 0.00 0.00 93 1016.3
20260903080514 74 141 0.0 0.0 0.00 0.00 0.00 93 1016.2
20260903080014 74 141 0.0 0.0 0.00 0.00 0.00 93 1016.3
20260903075514 74 141 0.0 0.0 0.00 0.00 0.00 93 1016.3
20260903075015 74 141 0.0 0.0 0.00 0.00 0.00 93 1016.3
20260903074512 74 141 0.0 0.0 0.00 0.00 0.00 93 1016.3
20260903074013 74 141 0.0 0.0 0.00 0.00 0.00 93 1016.3
20260903073512 74 141 0.0 0.0 0.00 0.00 0.00 93 1016.2
20260903072508 75 141 0.0 0.0 0.00 0.00 0.00 92 1016.3
20260903072013 75 141 0.0 0.0 0.00 0.00 0.00 92 1016.5
20260903071511 75 141 0.0 0.0 0.00 0.00 0.00 92 1016.5
20260903071013 75 141 0.0 0.0 0.00 0.00 0.00 92 1016.5
20260903065511 75 141 0.0 0.0 0.00 0.00 0.00 92 1016.7
20260903065008 75 141 0.0 0.0 0.00 0.00 0.00 92 1016.7
20260903064505 75 141 0.0 0.0 0.00 0.00 0.00 91 1016.7
20260903064009 75 141 0.0 0.0 0.00 0.00 0.00 91 1016.7
20260903063507 76 141 0.0 0.0 0.00 0.00 0.00 91 1016.7
20260903063009 76 141 0.0 0.0 0.00 0.00 0.00 91 1016.8
20260903062510 76 141 0.0 0.0 0.00 0.00 0.00 91 1017.0
20260903062006 76 141 0.0 0.0 0.00 0.00 0.00 91 1017.0
20260903061506 76 141 0.0 0.0 0.00 0.00 0.00 91 1017.0
20260903060506 76 141 0.0 0.0 0.00 0.00 0.00 91 1017.1
20260903060005 76 141 0.0 0.0 0.00 0.00 0.00 90 1017.1
20260903055511 76 141 0.0 0.0 0.00 0.00 0.00 90 1017.1
20260903055009 76 141 0.0 0.0 0.00 0.00 0.00 90 1017.1
20260903054508 76 141 0.0 0.0 0.00 0.00 0.00 90 1017.2
20260903054006 76 141 0.0 0.0 0.00 0.00 0.00 90 1017.2
20260903053508 76 141 0.0 0.0 0.00 0.00 0.00 90 1017.2
20260903053005 76 141 0.0 0.0 0.00 0.00 0.00 90 1017.3
20260903052506 76 141 0.0 0.0 0.00 0.00 0.00 90 1017.3
20260903052006 76 141 0.0 0.0 0.00 0.00 0.00 89 1017.3
20260903051505 76 141 0.0 0.0 0.00 0.00 0.00 89 1017.4
20260903051006 77 141 0.0 0.0 0.00 0.00 0.00 89 1017.2
20260903050506 77 141 0.0 0.0 0.00 0.00 0.00 89 1017.3
20260903050007 77 141 0.0 0.0 0.00 0.00 0.00 88 1017.4
20260903045507 77 141 0.0 0.0 0.00 0.00 0.00 88 1017.4
20260903045005 77 141 0.0 0.0 0.00 0.00 0.00 88 1017.5
20260903044501 77 141 0.0 0.0 0.00 0.00 0.00 87 1017.4
20260903044007 77 141 0.0 0.0 0.00 0.00 0.00 87 1017.5
20260903043505 77 141 0.0 0.0 0.00 0.00 0.00 87 1017.5
20260903043001 77 141 0.0 0.0 0.00 0.00 0.00 87 1017.5
20260903042502 77 141 0.0 0.0 0.00 0.00 0.00 86 1017.5
20260903041959 77 141 0.0 0.0 0.00 0.00 0.00 86 1017.5
20260903041453 78 141 0.0 0.0 0.00 0.00 0.00 86 1017.5
20260903040952 78 141 0.0 0.0 0.00 0.00 0.00 85 1017.5
20260903040451 78 141 0.0 0.0 0.00 0.00 0.00 85 1017.6
20260903035947 78 141 0.0 0.0 0.00 0.00 0.00 85 1017.5
20260903035442 78 141 0.0 0.0 0.00 0.00 0.00 84 1017.5
20260903034938 78 141 0.0 0.0 0.00 0.00 0.00 84 1017.6
20260903034441 78 141 0.0 0.0 0.00 0.00 0.00 84 1017.7
20260903033938 79 141 0.0 0.0 0.00 0.00 0.00 83 1017.6
20260903032437 79 141 0.0 0.0 0.00 0.00 0.00 82 1017.6
20260903031937 79 141 0.0 0.0 0.00 0.00 0.00 82 1017.6
20260903030938 80 141 0.0 0.0 0.00 0.00 0.00 81 1017.7
20260903030438 80 141 0.0 0.0 0.00 0.00 0.00 80 1017.6
20260903025932 80 141 0.0 0.0 0.00 0.00 0.00 80 1017.5
20260903025433 80 141 0.0 0.0 0.00 0.00 0.00 80 1017.6
20260903024930 80 141 0.0 0.0 0.00 0.00 0.00 79 1017.6
20260903024435 80 141 0.0 0.0 0.00 0.00 0.00 79 1017.6
20260903023939 81 141 0.0 0.0 0.00 0.00 0.00 78 1017.7
20260903023433 81 141 0.0 0.0 0.00 0.00 0.00 78 1017.7
20260903022929 81 141 0.0 0.0 0.00 0.00 0.00 78 1017.7
20260903022431 81 141 0.0 0.0 0.00 0.00 0.00 77 1017.7
20260903021930 81 141 0.0 0.0 0.00 0.00 0.00 77 1017.7
20260903021429 81 141 0.0 0.0 0.00 0.00 0.00 76 1017.7
20260903020931 82 141 0.0 0.0 0.00 0.00 0.00 76 1017.8
20260903020427 82 141 0.0 0.0 0.00 0.00 0.00 76 1017.7
20260903015927 82 141 0.0 0.0 0.00 0.00 0.00 75 1017.7
20260903015428 82 141 0.0 0.0 0.00 0.00 0.00 75 1017.7
20260903013927 83 141 0.0 0.0 0.00 0.00 0.00 73 1017.5
20260903013427 83 141 0.0 0.0 0.00 0.00 0.00 73 1017.4
20260903012928 83 141 0.0 0.0 0.00 0.00 0.00 72 1017.4
20260903012421 83 141 0.0 2.0 0.00 0.00 0.00 72 1017.2
20260903011927 84 141 0.0 2.0 0.00 0.00 0.00 72 1017.2
20260903011419 84 141 0.0 2.0 0.00 0.00 0.00 71 1017.1
20260903010924 84 141 1.0 2.0 0.00 0.00 0.00 71 1017.0
20260903010424 84 141 1.0 2.0 0.00 0.00 0.00 71 1017.0
20260903005922 85 141 1.0 3.0 0.00 0.00 0.00 70 1017.0
20260903004922 85 135 0.0 2.0 0.00 0.00 0.00 71 1016.9
20260903004422 85 135 1.0 2.0 0.00 0.00 0.00 71 1016.9
20260903003922 85 135 1.0 2.0 0.00 0.00 0.00 70 1016.8
20260903003419 86 135 0.0 2.0 0.00 0.00 0.00 70 1016.9
20260903001911 86 135 1.0 3.0 0.00 0.00 0.00 69 1016.8
20260903000903 87 149 1.0 5.0 0.00 0.00 0.00 68 1016.7
20260903000402 87 149 1.0 5.0 0.00 0.00 0.00 67 1016.7
20260902235902 88 154 1.0 5.0 0.00 0.00 0.00 67 1016.7